Probability
0 0 0 0 0 0 0 0 0 0 0 0 0 0 0 0 0 0 0 0 0 0 0 0 0 0 0 0 0 0 0 0 0 0 0 0 0 0 0 0 0 0 0 0
0 0 0 0 0 0 0 0 0 0 0 0 0 0 0 0 0 0 0 0 0 0 0 0 0 0 0 0 0 0 0 0 0 0 0 0 0 0 0 0 0 0 0 0
0 0 0 0 0 0 0 0 0 0 0 0 0 0 0 0 0 0 0 0 0 0 0 0 0 0 0 0 0 0 0 0 0 0 0 0 0 0 0 0 0 0 0 0
0 0 0 0 0 0 0 0 0 0 0 0 0 0 0 0 0 0 0 0 0 0 0 0 0 0 0 0 0 0 0 0 0 0 0 0 0 0 0 0 0 0 0 0
0 0 0 0 0 0 0 0 0 0 0 0 0 0 0 0 0 0 0 0 0 0 0 0 0 0 0 0 0 0 0 0 0 0 0 0 0 0 0 0 0 0 0 0
0 0 0 0 0 0 0 0 0 0 0 0 0 0 0 0 0 0 0 0 0 0 0 0 0 0 0 0 0 0 0 0 0 0 0 0 0 0 0 0 0 0 0 0
0 0 0 0 0 0 0 0 0 0 0 0 0 0 0 0 0 0 0 0 0 0 0 0 0 0 0 0 0 0 0 0 0 0 0 0 0 0 0 0 0 0 0 0
0 0 0 0 0 0 0 0 0 0 0 0 0 0 0 0 0 0 0 0 0 0 0 0 0 0 0 0 0 0 0 0 0 0 0 0 0 0 0 0 0 0 0 0
0 0 0 0 0 0 0 0 0 0 0 0 0 0 0 0 0 0 0 0 0 0 0 0 0 0 0 0 0 0 0 0 0 0 0 0 0 0 0 0 0 0 0 0
0 0 0 0 0 0 0 0 0 0 0 0 0 0 0 0 0 0 0 0 0 0 0 0 0 0 0 0 0 0 0 0 0 0 0 0 0 0 0 0 0 0 0 0
0 0 0 0 0 0 0 0 0 0 0 0 0 0 0 0 0 0 0 0 0 0 0 0 0 0 0 0 0 0 0 0 0 0 0 0 0 0 0 0 0 0 0 0
0 0 0 0 0 0 0 0 0 0 0 0 0 0 0 0 0 0 0 0 0 0 0 0 0 0 0 0 0 0 0 0 0 0 0 0 0 0 0 0 0 0 0 0
0 0 0 0 0 0 0 0 0 0 0 0 0 0 0 0 0 0 0 0 0 0 0 0 0 0 0 0 0 0 0 0 0 0 0 0 0 0 0 0 0 0 0 0
0 0 0 0 0 0 0 0 0 0 0 0 0 0 0 0 0 0 0 0 0 0 0 0 0 0 0 0 0 0 0 0 0 0 0 0 0 0 0 0 0 0 0 0
0 0 0 0 0 0 0 0 0 0 0 0 0 0 0 0 0 0 0 0 0 0 0 0 0 0 0 0 0 0 0 0 0 0 0 0 0 0 0 0 0 0 0 0
0 0 0 0 0 0 0 0 0 0 0 0 0 0 0 0 0 0 0 0 0 0 0 0 0 0 0 0 0 0 0 0 0 0 0 0 0 0 0 0 0 0 0 0
0 0 0 0 0 0 0 0 0 0 0 0 0 0 0 0 0 0 0 0 0 0 0 0 0 0 0 0 0 0 0 0 0 0 0 0 0 0 0 0 0 0 0 0
0 0 0 0 0 0 0 0 0 0 0 0 0 0 0 0 0 0 0 0 0 0 0 0 0 0 0 0 0 0 0 0 0 0 0 0 0 0 0 0 0 0 0 0
0 0 0 0 0 0 0 0 0 0 0 0 0 0 0 0 0 0 0 0 0 0 0 0 0 0 0 0 0 0 0 0 0 0 0 0 0 0 0 0 0 0 0 0
0 0 0 0 0 0 0 0 0 0 0 0 0 0 0 0 0 0 0 0 0 0 0 0 0 0 0 0 0 0 0 0 0 0 0 0 0 0 0 0 0 0 0 0
0 0 0 0 0 0 0 0 0 0 0 0 0 0 0 0 0 0 0 0 0 0 0 0 0 0 0 0 0 0 0 0 0 0 0 0 0 0 0 0 0 0 0 0
0 0 0 0 0 0 0 0 0 0 0 0 0 0 0 0 0 0 0 0 0 0 0 0 0 0 0 0 0 0 0 0 0 0 0 0 0 0 0 0 0 0 0 0
0 0 0 0 0 0 0 0 0 0 0 0 0 0 0 0 0 0 0 0 0 0 0 0 0 0 0 0 0 0 0 0 0 0 0 0 0 0 0 0 0 0 0 0
0 0 0 0 0 0 0 0 0 0 0 0 0 0 0 0 0 0 0 0 0 0 0 0 0 0 0 0 0 0 0 0 0 0 0 0 0 0 0 0 0 0 0 0
0 0 0 0 0 0 0 0 0 0 0 0 0 0 0 0 0 0 0 0 0 0 0 0 0 0 0 0 0 0 0 0 0 0 0 0 0 0 0 0 0 0 0 0
0 0 0 0 0 0 0 0 0 0 0 0 0 0 0 0 0 0 0 0 0 0 0 0 0 0 0 0 0 0 0 0 0 0 0 0 0 0 0 0 0 0 0 0
0 0 0 0 0 0 0 0 0 0 0 0 0 0 0 0 0 0 0 0 0 0 0 0 0 0 0 0 0 0 0 0 0 0 0 0 0 0 0 0 0 0 0 0
Wind_Speed
4 2 2 4 8 9 9 9 9 8 9 11 7 5 4 3 3 4 5 4 3 4 3 3 3 3 3 2 2 1 1 1 2 3 2 1 1 1 1 0 1 1 0 0
3 3 3 5 8 11 10 9 9 7 11 8 4 3 3 3 3 4 5 5 4 4 3 3 3 3 3 2 2 1 1 2 2 2 1 1 1 0 1 1 1 1 1 1
3 2 2 8 11 12 9 7 8 11 10 2 3 5 6 5 4 5 6 5 5 4 3 3 4 3 3 3 1 1 1 2 2 1 1 1 1 1 1 1 1 1 1 1
2 1 8 6 2 7 8 6 6 5 4 4 6 6 5 4 4 5 5 5 5 4 3 3 2 2 2 1 0 0 1 1 1 1 1 0 1 1 1 1 1 1 1 1
3 4 7 5 0 3 5 6 5 7 6 4 4 3 4 3 4 5 5 5 4 3 2 1 1 1 1 1 1 1 1 2 2 1 1 1 0 1 1 1 2 2 2 1
2 4 6 3 3 3 3 4 2 4 5 2 1 2 6 3 3 4 3 2 2 2 1 1 1 1 3 2 2 1 1 1 1 1 1 1 1 1 2 2 2 2 2 2
3 4 6 3 3 2 3 5 4 2 3 2 4 5 4 3 3 2 2 2 2 2 2 2 1 3 3 2 2 1 2 2 3 2 2 2 2 2 2 2 3 3 3 3
3 3 7 1 3 3 4 2 2 2 1 2 2 3 3 2 2 3 3 3 3 2 3 3 2 3 4 2 2 2 3 3 3 3 3 3 3 2 2 2 3 3 3 3
7 6 3 3 3 3 1 1 2 2 2 1 2 2 3 2 2 2 3 3 2 2 3 3 3 3 3 2 2 3 3 3 3 3 3 3 2 2 2 2 2 2 2 2
4 6 4 3 3 2 1 1 1 1 1 1 2 2 2 2 2 2 3 2 3 3 3 3 3 3 2 2 3 3 3 3 3 3 3 4 3 2 2 2 2 2 2 2
5 5 3 3 2 2 2 2 2 2 2 1 1 2 1 2 2 2 2 2 2 2 2 2 3 3 3 3 3 3 3 3 3 3 3 3 3 2 2 2 1 1 1 1
6 4 3 4 3 2 2 2 2 2 3 2 1 1 1 1 2 2 2 2 2 3 3 3 3 3 3 3 3 3 3 2 2 2 2 2 2 3 5 4 5 5 5 4
3 2 2 2 1 1 1 2 2 1 1 2 2 1 1 1 2 1 2 2 1 2 2 2 3 3 3 3 3 3 2 2 2 2 2 2 2 2 3 5 6 6 6 6
1 1 1 1 2 2 2 2 2 2 1 1 1 1 1 2 2 2 1 1 1 2 2 2 3 3 3 2 3 3 2 2 2 1 1 1 2 2 2 3 4 4 6 7
2 2 1 1 1 2 2 2 3 3 2 2 2 1 2 2 1 2 2 1 2 2 2 2 2 2 2 2 2 2 2 2 1 1 1 1 2 2 2 3 3 4 4 5
3 2 2 2 1 2 2 2 1 2 2 2 2 2 2 1 1 1 2 1 2 1 1 1 1 2 2 2 2 2 2 3 3 2 1 2 2 2 2 3 3 3 4 4
0 1 2 1 1 1 1 1 1 1 1 1 2 2 2 2 2 2 2 2 2 1 1 1 1 2 2 1 1 1 1 2 3 2 2 2 2 2 2 3 3 4 4 5
2 2 2 3 2 2 2 1 1 1 1 1 1 2 2 2 1 2 2 2 3 3 3 2 2 2 2 2 1 1 1 1 1 1 2 2 2 2 2 3 3 4 4 5
1 1 1 1 1 1 1 1 1 1 1 0 0 0 1 1 1 1 2 2 2 2 3 2 3 2 2 2 2 1 1 1 1 1 1 3 3 2 3 3 3 4 4 4
2 1 1 1 1 1 1 1 1 1 1 0 1 1 2 2 1 1 1 1 1 1 2 2 2 1 1 1 2 1 1 1 1 1 2 2 2 3 3 3 4 4 4 4
3 2 2 2 2 2 1 1 1 1 1 1 1 1 1 1 2 1 1 1 2 2 2 3 2 1 1 1 2 1 1 1 1 1 2 2 2 3 3 3 4 4 4 4
2 2 2 2 2 2 2 2 1 1 2 2 1 1 1 1 2 2 1 1 2 3 2 1 1 2 2 2 1 1 1 1 1 1 2 2 2 3 3 4 4 4 4 4
2 2 2 2 1 2 2 2 2 2 1 1 1 1 1 1 1 1 2 2 2 3 2 1 2 4 4 2 1 1 1 2 2 2 2 2 3 3 3 4 4 4 4 4
2 2 2 1 2 2 2 2 2 2 2 2 2 1 1 1 2 2 2 3 4 4 2 3 4 5 4 2 1 1 2 2 2 2 2 3 3 3 3 4 4 4 4 5
2 2 2 2 2 1 1 1 2 3 3 2 3 2 2 1 1 2 2 3 4 4 3 3 5 5 3 2 2 2 2 2 2 2 2 3 3 3 4 4 4 4 4 5
2 2 2 1 1 1 1 1 2 2 2 2 3 3 2 2 2 2 2 2 3 4 3 2 2 3 2 2 2 3 3 3 3 3 3 3 4 4 4 4 5 5 5 5
2 2 2 3 3 2 2 2 2 2 2 2 2 3 3 2 2 2 3 3 3 3 2 2 2 2 2 2 2 3 3 3 3 3 3 3 4 4 4 5 4 4 5 5
Wind_Direction
273 273 196 211 202 193 203 204 205 231 238 256 260 265 273 276 294 307 306 306 292 283 284 291 297 295 291 287 296 295 308 294 289 291 288 306 292 282 294 317 309 304 313 323
276 270 240 248 226 209 220 219 231 253 262 256 259 267 269 264 272 285 290 295 288 284 293 292 287 285 286 283 283 298 287 285 299 306 320 319 320 342 13 7 358 12 40 31
242 273 287 254 218 201 207 208 198 226 245 274 274 256 250 245 247 265 278 285 284 271 265 268 270 266 265 266 274 298 300 304 308 305 303 283 347 28 10 352 20 11 5 33
173 164 231 244 193 186 198 219 210 237 259 239 249 263 251 228 230 262 277 281 282 278 272 271 265 268 270 281 353 328 311 305 306 329 313 341 49 8 351 6 18 11 354 348
173 214 265 291 296 169 193 247 225 239 264 285 311 327 286 248 235 244 259 272 276 274 263 261 264 261 97 51 44 45 7 340 329 332 37 64 45 341 1 18 19 18 14 25
174 205 228 285 315 285 144 267 291 234 250 269 47 282 275 292 283 285 301 308 315 332 357 10 348 74 78 52 40 9 341 347 5 43 71 65 35 14 18 34 28 25 20 27
197 235 256 306 341 69 152 263 315 251 241 202 206 234 272 310 312 304 316 330 7 26 19 358 29 91 86 64 26 352 25 40 44 51 66 71 52 33 39 37 36 29 21 18
165 223 258 338 97 176 246 299 318 300 276 235 263 297 311 327 332 343 348 355 18 35 18 16 51 88 81 54 16 41 56 55 48 43 46 50 62 41 40 48 40 25 23 11
197 219 270 202 216 259 266 282 303 316 319 330 326 314 329 336 340 348 359 2 14 45 39 31 42 71 80 35 38 53 58 54 47 43 42 41 53 49 37 39 39 16 13 3
247 266 278 273 296 304 263 281 317 341 345 330 314 309 331 346 348 353 359 7 21 49 48 29 31 47 57 53 61 70 64 52 48 49 39 32 27 28 33 23 17 1 354 341
250 277 304 289 278 308 341 354 2 353 335 292 303 310 318 334 336 341 354 9 45 63 52 33 33 36 39 57 72 70 62 47 39 43 46 31 19 12 4 353 340 335 317 301
231 229 229 266 283 295 300 303 313 329 327 330 315 283 315 325 332 345 3 18 41 48 53 45 42 35 28 43 68 78 62 43 36 34 30 23 14 4 4 3 354 348 342 332
250 262 256 284 305 317 289 306 316 310 294 312 325 320 336 336 350 9 19 38 44 40 44 52 48 43 31 38 58 71 69 48 42 36 25 11 3 359 347 352 357 352 351 344
296 20 303 303 301 318 327 339 5 4 355 353 340 355 20 17 18 30 10 358 39 55 48 51 50 37 22 36 52 51 49 39 34 30 10 357 349 342 339 337 336 340 343 343
329 318 257 316 6 15 16 32 33 12 5 8 16 22 26 36 17 353 352 19 58 63 56 53 47 20 13 37 49 47 43 33 28 24 8 1 351 348 345 337 327 326 334 337
309 347 35 58 46 22 24 31 30 340 347 357 3 359 1 22 16 10 15 48 71 54 38 44 23 356 12 36 41 41 35 15 12 16 11 5 357 350 343 335 329 326 324 326
23 319 321 319 308 312 306 298 272 284 329 347 339 350 8 26 28 19 10 23 55 48 31 28 353 9 29 37 46 38 21 2 0 1 0 353 346 339 332 326 322 319 316 318
246 236 234 228 233 250 286 309 300 289 284 299 349 26 32 35 20 360 6 28 41 32 18 9 9 26 29 24 36 35 12 358 357 350 343 341 332 325 322 318 315 315 317 320
325 305 284 282 271 237 256 276 282 283 299 330 28 19 11 15 31 23 24 40 39 10 349 6 16 27 13 354 1 18 2 340 334 330 325 322 327 327 321 314 312 313 313 314
354 355 14 7 6 355 320 315 327 351 339 360 85 56 27 13 22 32 43 20 338 301 312 342 357 353 336 330 344 343 334 314 310 313 320 316 311 312 311 310 309 309 310 309
12 27 38 36 21 20 17 33 68 34 6 40 91 96 27 356 359 3 23 346 334 347 349 352 354 334 323 319 334 328 317 306 304 301 303 303 304 305 307 309 310 309 308 309
18 38 36 35 43 28 16 25 48 55 47 40 44 62 57 20 6 360 331 286 299 328 336 329 321 322 325 332 328 318 307 301 298 298 298 299 299 301 305 307 305 304 304 305
4 21 33 37 49 37 24 28 34 46 51 39 34 36 24 343 328 318 312 318 315 327 333 319 320 327 331 339 326 316 306 299 295 296 295 293 294 295 297 299 298 299 301 303
9 22 31 44 72 70 43 14 19 28 32 21 17 14 8 349 339 325 290 307 325 327 329 326 329 329 335 338 328 313 301 293 290 291 291 291 291 292 293 293 293 293 295 297
23 36 48 58 65 61 56 37 41 38 34 25 12 5 357 337 298 303 314 319 323 329 328 327 330 332 334 326 316 302 292 280 277 281 281 285 289 291 290 290 290 291 292 292
33 32 26 21 26 33 36 41 32 17 17 10 357 355 355 350 336 320 322 327 326 326 326 321 318 319 312 304 298 294 288 291 297 295 288 288 287 287 287 289 290 290 291 291
39 38 37 31 26 25 26 29 26 3 355 351 337 335 339 338 337 335 329 326 325 321 316 314 310 302 296 292 289 289 288 285 282 280 279 279 280 280 283 285 287 288 290 292